Regional Weather Roundup
Issued by NWS

Home | Current Version | Previous Version | Graphics & Text | Print | Product List | Glossary Off
Versions: 1 2 3 4 5 6 7 8 9 10 11 12 13 14 15 16 17 18 19 20 21 22 23 24 25 26 27

000
ASUS45 KBOU 242307
RWRCO

WEATHER ROUNDUP FOR COLORADO
NATIONAL WEATHER SERVICE DENVER/BOULDER CO
400 PM MST FRI FEB 24 2017

NOTE: "FAIR" INDICATES FEW OR NO CLOUDS BELOW 12000 FEET WITH NO
SIGNIFICANT WEATHER AND/OR OBSTRUCTIONS TO VISIBILITY.

COZ001>005-013-030-031-250000-
...NORTHWEST COLORADO...

CITY           SKY/WX    TMP DP  RH WIND       PRES   REMARKS
CRAIG          PTSUNNY   25  10  53 W9        29.96S WCI  15
HAYDEN         FAIR      21   9  58 NW8       29.94S WCI  12
MEEKER         CLOUDY    25  10  53 N7        29.93R WCI  17
MOUNT WERNER   NOT AVBL
STEAMBOAT SPGS PTSUNNY   21   9  58 SW8       29.92R WCI  11
WALDEN         NOT AVBL
$$

COZ006>008-011-250000-
...WEST CENTRAL VALLEYS...

CITY           SKY/WX    TMP DP  RH WIND       PRES   REMARKS
GRAND JUNCTION FAIR      34  14  43 NW13      29.98R WCI  25
MONTROSE       LGT SNOW  25  22  88 SE7       30.00R VSB 1   WCI  17
EAGLE          PTSUNNY   28   9  43 SW15      29.89R WCI  17
RIFLE          PTSUNNY   30  13  49 W13       29.94S WCI  20
DELTA          FAIR      35   8  33 W8        29.96S WCI  28
NUCLA          FAIR      34   9  35 NW10G16   30.00R WCI  26
$$

COZ017>023-064>068-250000-
...SOUTHWEST COLORADO...

CITY           SKY/WX    TMP DP  RH WIND       PRES   REMARKS
DURANGO        FAIR      29  10  45 W22       29.93R WCI  15
CORTEZ         CLOUDY    33  18  53 CALM      29.97R
PAGOSA SPRINGS FAIR      29  -1  27 SW12G22   29.88S WCI  19
TELLURIDE      LGT SNOW  16   8  73 W13G21    29.89R WCI   2
WOLF CREEK PAS LGT SNOW   5   3  92 S23G37    29.79S VSB 3/4 WCI -17
$$

COZ009-010-012-014-032>034-037-058>063-250000-
...CENTRAL COLORADO...

CITY           SKY/WX    TMP DP  RH WIND       PRES   REMARKS
ASPEN          FLURRIES  19  12  74 CALM      29.85R
BUENA VISTA    CLOUDY    23   5  47 SW18      29.84R WCI   8
COPPER MTN     NOT AVBL
BERTHOUD PASS  CLOUDY    -2 -13  60 N16G26    29.67R WCI -23
COTTONWOOD PAS LGT SNOW  18   3  53 SW10G22   29.79R WCI   6
GUNNISON       PTSUNNY   21  12  68 SW12      29.88R WCI   9
KREMMLING      FAIR      27   9  46 N8        29.88R WCI  18
LEADVILLE      CLOUDY    11  -5  48 W13       29.77R WCI  -4
MONARCH PASS     N/A      3   0  85 W29G35    29.82S WCI -21
SALIDA         CLOUDY    33  -6  19 W21G28    29.90R WCI  21
SUNLIGHT       NOT AVBL
WILKERSON PASS CLOUDY    10  -9  40 NW7       29.76R WCI   0
$$

COZ069>075-250000-
...SAN LUIS VALLEY/SANGRE DE CRISTO MOUNTAINS...

CITY           SKY/WX    TMP DP  RH WIND       PRES   REMARKS
ALAMOSA        CLOUDY    26  10  50 N7        29.85R WCI  18
LA VETA PASS   CLOUDY    16   9  73 S7G17     29.80R HAZE    WCI   6
SAGUACHE       PTSUNNY   27   1  33 NW15G21   29.85R WCI  15
$$

COZ035-036-038>040-250000-
...NORTHERN COLORADO FRONT RANGE...

CITY           SKY/WX    TMP DP  RH WIND       PRES   REMARKS
DENVER INTL AP CLOUDY    24  13  62 NE5       29.96R WCI  18
DMNS CITY PARK   N/A     24  13  61 E6        29.97R WCI  17
AURORA         CLOUDY    23  13  65 N6        29.96R WCI  15
FRONT RANGE AP CLOUDY    27  18  69 NE6       29.96R WCI  20
ERIE MUNI ARPT PTSUNNY   27  16  62 E5        29.97S WCI  22
BOULDER MUN AP LGT SNOW  25  19  80 NW3       29.96S
CENTENNIAL     CLOUDY    22  11  62 CALM      29.94R
BROOMFIELD     LGT SNOW  25  18  74 E6        29.95R WCI  18
FORT COLLINS   CLOUDY    25  15  66 VRB5      29.99R WCI  19
LONGMONT       LGT SNOW  27  18  67 CALM      30.00R
$$

COZ041-046-047-076>085-087-088-250000-
...PIKES PEAK/PALMER DIVIDE AND SOUTHERN FOOTHILLS...

CITY           SKY/WX    TMP DP  RH WIND       PRES   REMARKS
COLO. SPRINGS  LGT SNOW  24  14  65 NE6       29.92R WCI  17
A. F. ACADEMY  LGT SNOW  21  14  73 W3        29.89R
SCHRIEVER AFB  FLURRIES  24  11  58 NE5       29.92R WCI  18
ELLICOTT       FAIR     N/A N/A N/A NE5       29.91R
FALCON         PTSUNNY   22  10  59 SE3       29.90R
FORT CARSON    CLOUDY    28  11  49 N3        29.92R FOG
LIMON          CLOUDY    23  13  65 N7        29.97R WCI  15
MONUMENT HILL  FAIR      18  10  73 NE3       29.90R
TRINIDAD       PTSUNNY   33   9  36 E9        29.91R WCI  25
$$

COZ042>045-048>051-090-091-250000-
...NORTHEAST COLORADO...

CITY           SKY/WX    TMP DP  RH WIND       PRES   REMARKS
GREELEY ARPT   FLURRIES  25  18  74 CALM      30.01R
AKRON          PTSUNNY   23  17  78 N7        30.00R WCI  15
BURLINGTON     CLOUDY    27  16  63 N13       30.01R WCI  16
WRAY           NOT AVBL
STERLING       PTSUNNY   27  19  74 CALM      30.02S
HOLYOKE        FAIR      30  19  64 NW10      30.04R WCI  21
FORT MORGAN    CLOUDY    25  18  74 N3        30.02R
$$

COZ086-089-092>099-250000-
...SOUTHEAST COLORADO...

CITY           SKY/WX    TMP DP  RH WIND       PRES   REMARKS
PUEBLO         FAIR      35   9  33 S6        29.95R WCI  30
LA JUNTA       FAIR      36  11  35 NE12      29.98R
LAMAR          PTSUNNY   36  11  35 N12       29.99R
SPRINGFIELD      N/A     36  12  37 N14       29.96R
$$




USA.gov is the U.S. government's official web portal to all federal, state and local government web resources and services.